When you browse on this site, cookies collect data to enhance your experience and personalize the content and advertising you see.
Visit our Privacy Policy to learn more. By continuing to use the site, you agree to this use of cookies and data.
  • In Hungary
  • List of Countries
  • For 7 days
  • Water Temperature
  • Satellite Maps
  • Weather Map
  • News
  • Weather Widgets
  • user-avatar
    Login

    Hourly Weather Cedar Hill

    Today, 27 March, Wednesday

    Time Temperature Precipitation Wind Pressure Humidity
    00:00 +14°C° 0 mm 3 mps 749 mmHg 67%
    01:00 +13°C° 0 mm 3 mps 749 mmHg 69%
    02:00 +13°C° 0 mm 3 mps 749 mmHg 71%
    03:00 +12°C° 0 mm 3 mps 749 mmHg 72%
    04:00 +12°C° 0 mm 3 mps 749 mmHg 73%
    05:00 +11°C° 0 mm 3 mps 749 mmHg 73%
    06:00 +11°C° 0 mm 3 mps 749 mmHg 73%
    07:00 +12°C° 0 mm 4 mps 749 mmHg 70%
    08:00 +13°C° 0 mm 4 mps 749 mmHg 67%
    09:00 +14°C° 0 mm 5 mps 750 mmHg 64%
    10:00 +16°C° 0 mm 5 mps 749 mmHg 60%
    11:00 +19°C° 0 mm 5 mps 749 mmHg 56%
    12:00 +20°C° 0 mm 5 mps 749 mmHg 52%
    13:00 +21°C° 0 mm 5 mps 748 mmHg 51%
    14:00 +22°C° 0 mm 6 mps 747 mmHg 50%
    15:00 +23°C° 0 mm 6 mps 747 mmHg 49%
    16:00 +22°C° 0 mm 5 mps 746 mmHg 52%
    17:00 +21°C° 0 mm 5 mps 746 mmHg 56%
    18:00 +21°C° 0 mm 5 mps 745 mmHg 59%
    19:00 +20°C° 0 mm 5 mps 745 mmHg 61%
    20:00 +19°C° 0 mm 5 mps 746 mmHg 63%
    21:00 +17°C° 0 mm 5 mps 746 mmHg 65%
    22:00 +16°C° 0 mm 5 mps 746 mmHg 65%
    23:00 +16°C° 0 mm 5 mps 746 mmHg 66%

    Tomorrow, 28 March, Thursday

    Time Temperature Precipitation Wind Pressure Humidity
    00:00 +16°C° 0 mm 6 mps 746 mmHg 66%
    01:00 +15°C° 0 mm 6 mps 746 mmHg 69%
    02:00 +15°C° 0 mm 6 mps 745 mmHg 72%
    03:00 +14°C° 0 mm 6 mps 745 mmHg 75%
    04:00 +14°C° 0 mm 6 mps 745 mmHg 71%
    05:00 +13°C° 0 mm 6 mps 745 mmHg 67%
    06:00 +13°C° 0 mm 6 mps 745 mmHg 63%
    07:00 +14°C° 0 mm 6 mps 745 mmHg 64%
    08:00 +15°C° 0 mm 6 mps 745 mmHg 64%
    09:00 +15°C° 0 mm 6 mps 746 mmHg 65%
    10:00 +17°C° 0 mm 6 mps 745 mmHg 62%
    11:00 +20°C° 0 mm 7 mps 745 mmHg 59%
    12:00 +22°C° 0 mm 7 mps 745 mmHg 56%
    13:00 +23°C° 0 mm 7 mps 744 mmHg 54%
    14:00 +24°C° 0 mm 8 mps 743 mmHg 52%
    15:00 +26°C° 0 mm 8 mps 743 mmHg 50%
    16:00 +24°C° 0 mm 7 mps 742 mmHg 54%
    17:00 +23°C° 0 mm 6 mps 742 mmHg 59%
    18:00 +23°C° 0 mm 6 mps 742 mmHg 64%
    19:00 +22°C° 0 mm 6 mps 742 mmHg 66%
    20:00 +22°C° 0 mm 7 mps 742 mmHg 68%
    21:00 +21°C° 0 mm 7 mps 743 mmHg 71%
    22:00 +20°C° 0 mm 8 mps 742 mmHg 74%
    23:00 +20°C° 0 mm 8 mps 742 mmHg 77%

    Day after tomorrow, 29 March, Friday

    Time Temperature Precipitation Wind Pressure Humidity
    00:00 +18°C° 0 mm 8 mps 742 mmHg 80%
    01:00 +17°C° 0.2 mm 7 mps 742 mmHg 82%
    02:00 +17°C° 0.2 mm 7 mps 742 mmHg 85%
    03:00 +16°C° 0.2 mm 6 mps 741 mmHg 87%
    04:00 +17°C° 0.2 mm 7 mps 741 mmHg 86%
    05:00 +17°C° 0.2 mm 7 mps 741 mmHg 86%
    06:00 +17°C° 0.2 mm 7 mps 741 mmHg 85%
    07:00 +17°C° 0.7 mm 7 mps 741 mmHg 84%
    08:00 +17°C° 0.7 mm 6 mps 741 mmHg 84%
    09:00 +17°C° 0.7 mm 6 mps 741 mmHg 83%
    10:00 +19°C° 1.1 mm 6 mps 741 mmHg 84%
    11:00 +19°C° 1.1 mm 5 mps 741 mmHg 85%
    12:00 +19°C° 1.1 mm 5 mps 740 mmHg 85%
    13:00 +20°C° 0 mm 6 mps 740 mmHg 80%
    14:00 +21°C° 0 mm 7 mps 739 mmHg 75%
    15:00 +23°C° 0 mm 8 mps 738 mmHg 70%
    16:00 +22°C° 0 mm 7 mps 738 mmHg 72%
    17:00 +22°C° 0 mm 7 mps 738 mmHg 73%
    18:00 +22°C° 0 mm 6 mps 738 mmHg 75%
    19:00 +21°C° 0.2 mm 6 mps 738 mmHg 78%
    20:00 +21°C° 0.2 mm 6 mps 738 mmHg 82%
    21:00 +20°C° 0.2 mm 5 mps 739 mmHg 86%
    22:00 +20°C° 0 mm 6 mps 738 mmHg 86%
    23:00 +20°C° 0 mm 6 mps 738 mmHg 86%

    30 March, Saturday

    Time Temperature Precipitation Wind Pressure Humidity
    00:00 +19°C° 0 mm 6 mps 738 mmHg 86%
    01:00 +19°C° 0 mm 6 mps 738 mmHg 88%
    02:00 +19°C° 0 mm 5 mps 738 mmHg 89%
    03:00 +17°C° 0 mm 5 mps 738 mmHg 90%
    04:00 +18°C° 0 mm 4 mps 739 mmHg 91%
    05:00 +18°C° 0 mm 3 mps 739 mmHg 91%
    06:00 +18°C° 0 mm 2 mps 740 mmHg 91%
    07:00 +17°C° 0.1 mm 4 mps 741 mmHg 85%
    08:00 +14°C° 0.1 mm 6 mps 743 mmHg 80%
    09:00 +12°C° 0.1 mm 8 mps 744 mmHg 74%
    10:00 +12°C° 0 mm 8 mps 744 mmHg 71%
    11:00 +12°C° 0 mm 8 mps 745 mmHg 67%
    12:00 +12°C° 0 mm 7 mps 745 mmHg 64%
    13:00 +15°C° 0 mm 7 mps 745 mmHg 60%
    14:00 +16°C° 0 mm 8 mps 745 mmHg 56%
    15:00 +17°C° 0 mm 8 mps 745 mmHg 52%
    16:00 +17°C° 0 mm 7 mps 745 mmHg 53%
    17:00 +16°C° 0 mm 7 mps 745 mmHg 55%
    18:00 +15°C° 0 mm 6 mps 745 mmHg 56%
    19:00 +15°C° 0 mm 6 mps 746 mmHg 55%
    20:00 +14°C° 0 mm 6 mps 747 mmHg 55%
    21:00 +13°C° 0 mm 6 mps 748 mmHg 54%
    22:00 +13°C° 0 mm 6 mps 748 mmHg 54%
    23:00 +11°C° 0 mm 6 mps 748 mmHg 54%

    31 March, Sunday

    Time Temperature Precipitation Wind Pressure Humidity
    00:00 +11°C° 0 mm 6 mps 748 mmHg 54%
    01:00 +10°C° 0 mm 6 mps 748 mmHg 54%
    02:00 +10°C° 0 mm 6 mps 748 mmHg 54%
    03:00 +9°C° 0 mm 6 mps 748 mmHg 54%
    04:00 +9°C° 0 mm 5 mps 749 mmHg 54%
    05:00 +9°C° 0 mm 5 mps 749 mmHg 54%
    06:00 +8°C° 0 mm 5 mps 750 mmHg 54%
    07:00 +9°C° 0 mm 5 mps 750 mmHg 55%
    08:00 +9°C° 0 mm 5 mps 750 mmHg 55%
    09:00 +9°C° 0 mm 5 mps 750 mmHg 55%
    10:00 +10°C° 0 mm 5 mps 750 mmHg 52%
    11:00 +12°C° 0 mm 4 mps 750 mmHg 50%
    12:00 +12°C° 0 mm 4 mps 750 mmHg 48%
    13:00 +13°C° 0 mm 4 mps 749 mmHg 46%
    14:00 +13°C° 0 mm 4 mps 748 mmHg 44%
    15:00 +14°C° 0 mm 4 mps 748 mmHg 43%
    16:00 +13°C° 0 mm 4 mps 748 mmHg 45%
    17:00 +13°C° 0 mm 3 mps 747 mmHg 48%
    18:00 +12°C° 0 mm 3 mps 747 mmHg 50%
    19:00 +12°C° 0 mm 3 mps 747 mmHg 52%
    20:00 +11°C° 0 mm 3 mps 748 mmHg 54%
    21:00 +10°C° 0 mm 3 mps 748 mmHg 56%
    22:00 +9°C° 0 mm 3 mps 748 mmHg 56%
    23:00 +9°C° 0 mm 3 mps 748 mmHg 56%

    1 April, Monday

    Time Temperature Precipitation Wind Pressure Humidity
    00:00 +9°C° 0 mm 3 mps 748 mmHg 56%
    01:00 +8°C° 0 mm 2 mps 748 mmHg 57%
    02:00 +8°C° 0 mm 2 mps 747 mmHg 57%
    03:00 +7°C° 0 mm 2 mps 747 mmHg 57%
    04:00 +7°C° 0 mm 2 mps 747 mmHg 57%
    05:00 +7°C° 0 mm 2 mps 748 mmHg 57%
    06:00 +7°C° 0 mm 2 mps 748 mmHg 57%
    07:00 +8°C° 0 mm 3 mps 748 mmHg 56%
    08:00 +8°C° 0 mm 3 mps 749 mmHg 54%
    09:00 +9°C° 0 mm 3 mps 749 mmHg 52%
    10:00 +10°C° 0 mm 3 mps 749 mmHg 49%
    11:00 +12°C° 0 mm 3 mps 749 mmHg 46%
    12:00 +13°C° 0 mm 3 mps 748 mmHg 43%
    13:00 +13°C° 0 mm 3 mps 748 mmHg 41%
    14:00 +14°C° 0 mm 3 mps 747 mmHg 39%
    15:00 +16°C° 0 mm 3 mps 746 mmHg 38%
    16:00 +16°C° 0 mm 2 mps 746 mmHg 41%
    17:00 +16°C° 0 mm 2 mps 746 mmHg 43%
    18:00 +16°C° 0 mm 2 mps 746 mmHg 46%
    19:00 +14°C° 0 mm 2 mps 746 mmHg 48%
    20:00 +13°C° 0 mm 2 mps 747 mmHg 51%
    21:00 +12°C° 0 mm 2 mps 747 mmHg 53%
    22:00 +10°C° 0 mm 2 mps 747 mmHg 55%
    23:00 +10°C° 0 mm 2 mps 747 mmHg 56%
    Show more